Rbgn^[z[y[W
メイン
   新天体発見情報
     Comet C/2020 F6 (PANSTARRS)
投稿するにはまず登録を

スレッド表示 | 新しいものから 前のトピック | 次のトピック | 下へ
投稿者 スレッド
佐藤裕久
投稿日時: 2020-5-5 14:35
モデレータ
登録日: 2005-6-12
居住地: 日本
投稿: 2099
オンライン
Comet C/2020 F6 (PANSTARRS)

この天体は、3月21日 UT、彗星活動の言及がないまま、Pan-STARRS 1 (F51) から通報が
あった。R. Wainscoatは、その後3月22日、拡散した2".2のコマに気づき報告した。
小惑星センターのPCCP webpageに公表後、佐藤英貴氏(東京都文京区, iTelescope天文台, 
3月27.69日UT、60秒露出18枚のスタック, 0.51-m f/6.8 アストログラフ, Siding Spring, 
NSW, 遠隔操作:強く集光した6" のコマがあり、p.a. 90°に向かって10"の尾の気配がある。
4".9の円形範囲で測定した光度は20.2等であった)らCCD位置観測者によって彗星状と観測
された。

彗星機能の追加報告は次の通り:

OC   Date        Reporter           Coma    Tail    PA          Exposures
568  2020-03-22  R. Weryk           1".25                       60s
568  2020-03-24  R. Weryk           1".5                        60s
Q62  2020-03-27  H. Sato             6"      10"    90          18x60s
F51  2020-04-02  R. Weryk            2"                         4x45s

発見位置は次のとおり、

     2020 UT             R.A. (2000) Decl.       Mag.
     Mar. 28.24723   17 06 08.06   -77 28 13.4   15.8
          28.26190   17 06 08.60   -77 28 21.6   15.8
          28.27168   17 06 09.08   -77 28 27.3   15.8
     Apr.  5.33289   17 12 58.86   -78 45 21.6   16.1
           5.34939   17 12 58.89   -78 45 29.9   15.9
           5.35681   17 12 59.36   -78 45 34.4   16.6

MPCの放物線軌道要素と位置推算表は次のとおり、

Orbital elements:
    C/2020 F6 (PANSTARRS)                                                       
T 2020 Apr. 12.28402 TT                                 Rudenko                 
q   3.5131614            (2000.0)            P               Q                  
                   Peri.  344.71626     -0.73021510     -0.68179489             
                   Node   207.85784     -0.61653702     +0.62978560             
e   1.0            Incl.  174.58903     -0.29439431     +0.37219059             
From 26 observations 2020 Mar. 21-Apr. 6.                                       
                                                                                
Ephemeris:
Date    TT    R. A. (2000) Decl.     Delta      r    Elong.  Phase   m1
2020 03 09    16 15 50.9 -23 36 58   3.1792  3.5272   102.3    16.0  20.8
...
2020 03 24    15 53 22.0 -22 29 41   2.8794  3.5176   122.5    13.8  20.6
...
2020 04 01    15 37 39.9 -21 34 58   2.7442  3.5147   134.2    11.8  20.5
...
2020 04 07    15 24 17.4 -20 43 16   2.6593  3.5135   143.3     9.8  20.4
2020 04 08    15 21 56.5 -20 33 42   2.6468  3.5134   144.9     9.4  20.4
2020 04 09    15 19 33.6 -20 23 52   2.6347  3.5133   146.5     9.1  20.4
...
2020 04 15    15 04 41.2 -19 19 05   2.5730  3.5132   156.0     6.7  20.4
...
2020 04 23    14 43 43.4 -17 38 09   2.5223  3.5145   169.0     3.1  20.3
...
2020 05 08    14 04 09.0 -13 58 07   2.5331  3.5211   166.1     4.0  20.3

(MPEC 2020-G75、CBET 4748)

スレッド表示 | 新しいものから 前のトピック | 次のトピック | トップ

投稿するにはまず登録を
 
© 1999 Tsutomu Seki.